FW2825 Weather Reports


time (UTC)temp
C
wind
direction
speed
KPH
gust
KPH
rain 1hr
cm
rain 24hr
cm
rain mn
cm
humidity
%
barometer
mb
20260510193112 22 360 0.0 0.0 0.00 0.28 0.00 60 1011.1
20260510191616 21 360 0.0 0.0 0.00 0.28 0.00 67 1011.0
20260510190003 20 360 0.0 1.6 0.00 0.28 0.00 69 1011.2
20260510184605 21 360 0.0 0.0 0.00 0.28 0.00 67 1011.2
20260510183110 21 360 0.0 0.0 0.00 0.28 0.00 70 1011.2
20260510181618 20 360 0.0 9.7 0.00 0.28 0.00 70 1011.3
20260510180005 20 360 0.0 0.0 0.00 0.28 0.00 71 1011.2
20260510174609 20 360 0.0 0.0 0.00 0.36 0.00 73 1011.4
20260510173115 20 360 0.0 0.0 0.00 0.36 0.00 72 1011.2
20260510171620 20 360 0.0 0.0 0.00 0.36 0.00 68 1011.3
20260510170019 20 360 0.0 0.0 0.00 0.36 0.00 71 1011.5
20260510164615 20 360 0.0 0.0 0.00 0.43 0.00 75 1011.8
20260510163109 19 360 0.0 0.0 0.00 0.43 0.00 73 1012.1
20260510161618 19 360 0.0 0.0 0.00 0.43 0.00 75 1012.1
20260510160124 18 360 0.0 0.0 0.00 0.43 0.00 78 1012.2
20260510153114 17 360 0.0 0.0 0.00 0.46 0.00 83 1012.6
20260510151613 16 360 0.0 0.0 0.00 0.46 0.00 87 1012.7
20260510150109 15 360 0.0 0.0 0.00 0.46 0.00 91 1012.7
20260510144618 14 360 0.0 0.0 0.00 0.51 0.00 93 1012.7
20260510143003 13 360 0.0 0.0 0.00 0.51 0.00 95 1012.8
20260510141611 13 360 0.0 0.0 0.00 0.51 0.00 97 1012.8
20260510140113 12 360 0.0 0.0 0.00 0.51 0.00 98 1012.9
20260510134620 12 360 0.0 0.0 0.00 0.56 0.00 97 1012.9
20260510133103 12 360 0.0 0.0 0.00 0.56 0.00 98 1013.0
20260510131610 11 360 0.0 0.0 0.00 0.56 0.00 98 1013.0
20260510130116 11 360 0.0 0.0 0.00 0.56 0.00 98 1013.0
20260510124503 11 360 0.0 0.0 0.00 0.64 0.00 98 1012.8
20260510123105 11 360 0.0 0.0 0.00 0.64 0.00 98 1012.8
20260510121616 11 360 0.0 0.0 0.00 0.64 0.00 98 1012.7
20260510120117 11 360 0.0 0.0 0.00 0.64 0.00 98 1012.7
20260510114608 11 360 0.0 0.0 0.00 0.64 0.00 97 1012.8
20260510113108 11 360 0.0 0.0 0.00 0.64 0.00 98 1012.9
20260510111611 10 360 0.0 0.0 0.00 0.64 0.00 98 1012.6
20260510110122 10 360 0.0 0.0 0.00 0.64 0.00 98 1012.6
20260510104619 10 360 0.0 0.0 0.00 0.79 0.00 98 1012.6
20260510103115 10 360 0.0 0.0 0.00 0.79 0.00 98 1012.2
20260510101615 10 360 0.0 0.0 0.00 0.79 0.00 98 1012.0
20260510094609 10 360 0.0 0.0 0.00 0.91 0.00 98 1011.2
20260510093115 10 360 0.0 0.0 0.00 0.91 0.00 97 1011.2
20260510091503 9 360 0.0 0.0 0.00 0.91 0.00 97 1011.5
20260510090114 10 360 0.0 0.0 0.00 0.91 0.00 97 1011.4
20260510084610 10 360 0.0 0.0 0.00 0.91 0.00 97 1011.7
20260510083120 10 360 0.0 0.0 0.00 0.91 0.00 97 1011.9
20260510081603 10 360 0.0 0.0 0.00 0.91 0.00 97 1011.8
20260510080119 10 360 0.0 0.0 0.00 0.91 0.00 97 1011.9
20260510074626 10 360 0.0 0.0 0.00 0.91 0.00 97 1011.9
20260510073124 10 360 0.0 0.0 0.00 0.91 0.00 97 1011.9
20260510071607 10 360 0.0 0.0 0.00 0.91 0.00 97 1011.6
20260510070115 10 360 0.0 0.0 0.00 0.91 0.00 97 1011.5
20260510064615 10 360 0.0 0.0 0.00 0.91 0.00 97 1011.5
20260510063104 10 360 0.0 0.0 0.00 0.91 0.00 97 1011.6
20260510061609 10 360 0.0 0.0 0.00 0.91 0.00 98 1011.4
20260510060115 10 360 0.0 0.0 0.00 0.91 0.00 97 1011.5
20260510054620 9 360 0.0 0.0 0.00 0.91 0.00 97 1011.2
20260510053106 8 360 0.0 0.0 0.00 0.91 0.00 97 1011.7
20260510051609 8 360 0.0 0.0 0.00 0.91 0.00 97 1011.7
20260510050116 8 360 0.0 0.0 0.00 0.91 0.00 97 1011.3
20260510044618 9 360 0.0 0.0 0.00 0.91 0.00 97 1011.5
20260510043107 9 360 0.0 0.0 0.00 0.91 0.00 97 1011.5
20260510041613 9 360 0.0 0.0 0.00 0.91 0.00 97 1011.5
20260510040116 9 360 0.0 0.0 0.00 0.91 0.00 97 1011.7
20260510034607 10 360 0.0 0.0 0.00 0.91 0.91 97 1011.5
20260510033109 9 360 0.0 0.0 0.00 0.91 0.91 97 1011.6
20260510031616 9 360 0.0 0.0 0.00 0.91 0.91 97 1011.8
20260510030004 9 360 0.0 0.0 0.00 0.91 0.91 97 1011.7
20260510024605 9 360 0.0 0.0 0.00 0.91 0.91 97 1011.8
20260510023109 9 360 0.0 0.0 0.00 0.91 0.91 97 1011.5
20260510021617 9 360 0.0 0.0 0.00 0.91 0.91 97 1011.6
20260510020006 9 360 0.0 0.0 0.00 0.91 0.91 97 1012.1
20260510014609 9 360 0.0 0.0 0.00 0.91 0.91 97 1012.3
20260510013112 9 360 0.0 0.0 0.00 0.91 0.91 97 1012.3
20260510011620 9 360 0.0 0.0 0.00 0.91 0.91 97 1012.0
20260510010113 9 360 0.0 0.0 0.00 0.91 0.91 96 1011.7
20260510004614 9 360 0.0 0.0 0.00 0.91 0.91 96 1011.4
20260510003117 9 360 0.0 0.0 0.00 0.91 0.91 96 1011.3
20260510001604 9 360 0.0 0.0 0.00 0.91 0.91 96 1011.4
20260510000132 9 360 0.0 0.0 0.00 0.91 0.91 96 1011.3
20260509234617 9 360 0.0 0.0 0.03 0.91 0.91 96 1011.4
20260509233104 9 360 0.0 0.0 0.03 0.91 0.91 96 1011.6
20260509231612 9 360 0.0 0.0 0.03 0.91 0.91 96 1011.2
20260509230118 9 360 0.0 0.0 0.03 0.91 0.91 96 1011.3
20260509224607 9 360 0.0 0.0 0.00 0.89 0.89 96 1011.2
20260509223110 9 360 0.0 0.0 0.00 0.89 0.89 96 1011.1
20260509221620 9 360 0.0 0.0 0.03 0.89 0.89 96 1011.3
20260509220122 9 360 0.0 0.0 0.05 0.89 0.89 96 1011.4
20260509214608 9 360 0.0 0.0 0.08 0.89 0.89 95 1011.3
20260509213113 9 360 0.0 0.0 0.13 0.89 0.89 95 1011.4
20260509211615 9 360 0.0 0.0 0.13 0.86 0.86 95 1011.6
20260509210105 8 360 0.0 0.0 0.13 0.84 0.84 95 1011.8
20260509204612 8 360 0.0 0.0 0.13 0.81 0.81 95 1012.0
20260509203118 8 360 0.0 0.0 0.10 0.76 0.76 95 1012.1
20260509201605 8 360 0.0 0.0 0.08 0.71 0.71 95 1012.3
20260509200110 8 360 0.0 0.0 0.08 0.71 0.71 94 1012.4
20260509194614 9 360 0.0 0.0 0.05 0.69 0.69 94 1012.6